Regional Weather Roundup
Issued by NWS Cleveland, OH

Home | Current Version | Previous Version | Graphics & Text | Print | Product List | Glossary On
Versions: 1 2 3 4 5 6 7 8 9 10 11 12 13 14 15 16 17 18 19 20 21 22 23 24 25 26 27 28 29 30 31 32 33 34 35 36 37 38 39 40 41 42 43 44 45 46 47 48 49 50
000
ASUS41 KCLE 262300
RWRCLE
OHIO REGIONAL WEATHER ROUNDUP
NATIONAL WEATHER SERVICE WILMINGTON, OH
700 PM EDT FRI AUG 26 2016

NOTE: "FAIR" INDICATES FEW OR NO CLOUDS BELOW 12,000 FEET WITH NO
SIGNIFICANT WEATHER AND/OR OBSTRUCTIONS TO VISIBILITY.

OHZ001>008-015>018-024>027-034-035-043-044-270000-
   NORTHWEST OHIO

CITY           SKY/WX    TMP DP  RH WIND       PRES   REMARKS
DEFIANCE       FAIR      81  68  64 CALM      30.12S
FINDLAY        FAIR      83  62  49 CALM      30.11S
TOLEDO EXPRESS FAIR      82  63  52 NW6       30.12R
TOLEDO EXEC    FAIR      83  64  52 S5        30.12R
LIMA           FAIR      81  70  69 NE5       30.12S
$$

OHZ009>014-019>023-028>033-038-089-270000-
   NORTHEAST OHIO

CITY           SKY/WX    TMP DP  RH WIND       PRES   REMARKS
CLE-HOPKINS    FAIR      80  59  48 N8        30.15S
CLE-LAKEFRONT  FAIR      79  61  53 N3        30.12S
CUY CO. ARPT   SUNNY     81  59  47 N5        30.15R
LORAIN-ELYRIA  FAIR      78  58  49 N7        30.14R
ASHTABULA      FAIR      76  62  62 CALM      30.15S
AKRON-CANTON   FAIR      84  60  44 N5        30.13S
WOOSTER        NOT AVBL
MANSFIELD      FAIR      82  57  42 N6        30.14F
YOUNGSTOWN     FAIR      83  61  47 NW5       30.14R
$$

OHZ042-051>053-060>062-070>072-077>081-270000-
  SOUTHWEST OHIO

CITY           SKY/WX    TMP DP  RH WIND       PRES   REMARKS
CINC-COVINGTON PTSUNNY   90  72  55 CALM      30.07F HX  97
CINC-LUNKEN    NOT AVBL
HAMILTON       PTSUNNY   83  76  79 CALM      30.07F THUNDER HX  91
DAYTON         NOT AVBL
WRIGHT-PAT AFB NOT AVBL
DAYTON GENERAL PTSUNNY   85  72  65 E5        30.08F HX  91
WILMINGTON     FAIR      85  74  69 CALM      30.09F HX  92
$$

OHZ036-037-039>041-045>050-054>059-063>069-073>076-082>088-270000-
  CENTRAL AND SOUTHEAST OHIO

CITY           SKY/WX    TMP DP  RH WIND       PRES   REMARKS
COLUMBUS       FAIR      84  67  56 NE9       30.09S
OSU AIRPORT    FAIR      84  70  62 N8        30.10S
BOLTON FIELD   MOSUNNY   84  73  70 NE6       30.11  HX  91
RICKENBACK AFB NOT AVBL
NEWARK         FAIR      86  70  58 N6        30.10S HX  90
MARION         FAIR      83  65  54 NE3       30.13S
LANCASTER      FAIR      87  74  64 NE3       30.10S HX  95
ZANESVILLE     FAIR      87  69  54 N5        30.11R HX  91
NEW PHILLY     FAIR      88  60  38 N6        30.11S
$$




USA.gov is the U.S. government's official web portal to all federal, state and local government web resources and services.